[[{"header":{"parameterUnit":"m.s-1","parameterCategory":2,"la1":30.2991,"la2":30.254,"lo1":-89.0895,"lo2":-89.0444,"dy":0.0017,"dx":0.0017,"nx":28,"ny":28,"refTime":"2024-04-16T09:00:00:Z","depth":"0","parameterNumber":2,"parameterNumberName":"U-component_of_CURRENTS"},"data":[0,0,0,0,0,0,0,0,0,0,0,0,0,0,0,0,0,0,0,0,0,0,0,0,0,0,0,0,0,0,0,0,0,0,0,0,0,0,0,0,0,0,0,0,0,0,0,0,0,0,0,0,0,0,0,0,0,0,-0.2775,-0.2775,0,-0.2755,-0.2754,-0.2753,-0.2721,-0.2722,-0.2722,-0.2722,-0.2582,-0.2578,-0.2574,0,0,0,0,0,0,0,0,0,0,0,0,0,-0.2654,-0.2657,-0.2775,-0.2775,-0.2776,-0.2755,-0.2754,-0.2753,-0.2721,-0.2722,-0.2722,-0.2723,-0.2583,-0.2578,-0.2573,0,0,0,0,0,0,0,0,0,0,0,0,0,-0.2668,-0.2657,-0.2775,-0.2766,-0.2766,-0.2756,-0.2754,-0.2752,-0.2721,-0.2722,-0.2722,-0.2723,-0.2585,-0.2579,-0.2573,-0.2521,0,0,-0.2554,-0.2551,0,0,0,0,0,0,0,0,-0.2667,-0.2671,-0.2767,-0.2767,-0.2767,-0.2751,-0.2661,-0.2673,-0.2721,-0.2726,-0.2723,-0.2723,-0.2634,-0.2624,-0.2604,-0.2514,-0.2508,-0.2553,-0.2549,-0.2547,-0.2545,0,0,0,0,0,0,0,-0.2666,-0.2671,-0.2756,-0.2768,-0.2768,-0.272,-0.2722,-0.2662,-0.2666,-0.2726,-0.2726,-0.2742,-0.2632,-0.2611,-0.2601,-0.2506,-0.2553,-0.2548,-0.2544,-0.2541,-0.2387,-0.2387,0,0,0,0,0,0,-0.2698,-0.2671,-0.2756,-0.2756,-0.273,-0.2723,-0.2725,-0.2746,-0.2669,-0.2662,-0.2741,-0.2741,-0.2621,-0.2608,-0.2596,-0.2597,-0.2547,-0.2541,-0.2537,-0.2387,-0.2387,-0.2387,0,0,0,0,0,0,-0.2695,-0.2706,-0.2757,-0.2721,-0.2726,-0.2726,-0.2749,-0.2746,-0.2739,-0.2684,-0.2673,-0.2742,-0.2621,-0.2604,-0.2538,-0.2589,-0.2538,-0.2532,-0.2388,-0.2387,-0.2387,-0.2557,0,0,0,0,0,0,-0.2692,-0.2705,-0.2716,-0.2724,-0.273,-0.2757,-0.275,-0.2745,-0.2753,-0.2751,-0.268,-0.2667,-0.262,-0.2547,-0.2531,-0.258,-0.2527,-0.2388,-0.2388,-0.2387,-0.2552,-0.2562,-0.2571,0,0,0,0,0,-0.2688,-0.2711,-0.2717,-0.2727,-0.2751,-0.2758,-0.2754,-0.2748,-0.2752,-0.2744,-0.2691,-0.267,-0.2533,-0.2541,-0.2523,-0.2571,-0.2389,-0.2388,-0.2387,-0.2547,-0.256,-0.2571,0,0,0,0,0,0,-0.2654,-0.2712,-0.2717,-0.2754,-0.2759,-0.2757,-0.2758,-0.2757,-0.271,-0.2707,-0.265,-0.2631,-0.2593,-0.2539,-0.255,-0.2518,-0.2463,-0.2459,-0.2591,-0.2602,-0.2612,-0.2673,-0.2522,0,0,0,0,0,-0.2659,-0.269,-0.2724,-0.2744,-0.2759,-0.2758,-0.276,-0.2758,-0.2733,-0.2715,-0.2669,-0.2614,-0.2572,-0.2554,-0.2487,-0.2466,-0.2431,-0.2484,-0.2494,-0.2503,-0.2535,-0.2571,-0.259,-0.2384,-0.2384,-0.2384,0,0,-0.2646,-0.2684,-0.2697,-0.2738,-0.2743,-0.2771,-0.2758,-0.2769,-0.2795,-0.2703,-0.2696,-0.2632,-0.2564,-0.2541,-0.2523,-0.2511,-0.2519,-0.2502,-0.2511,-0.2539,-0.2573,-0.2594,-0.2613,-0.2383,-0.2384,-0.2384,0,0,-0.2641,-0.2679,-0.2704,-0.2725,-0.2757,-0.2771,-0.2785,-0.279,-0.2798,-0.2768,-0.2728,-0.2715,-0.2607,-0.2621,-0.2603,-0.2625,-0.2557,-0.2576,-0.2701,-0.2735,-0.2755,-0.2772,-0.2671,-0.2678,-0.2602,-0.2602,-0.2602,0,-0.262,-0.2674,-0.2703,-0.2737,-0.2779,-0.2784,-0.2827,-0.2832,-0.2808,-0.2834,-0.2777,-0.2722,-0.2671,-0.2722,-0.2724,-0.2664,-0.2603,-0.2675,-0.2758,-0.2774,-0.2789,-0.2682,-0.2688,-0.261,-0.2609,-0.2608,-0.2607,0,-0.2637,-0.2684,-0.2704,-0.2769,-0.2807,-0.2839,-0.2887,-0.2906,-0.2911,-0.2919,-0.294,-0.2876,-0.2857,-0.2846,-0.2784,-0.2873,-0.2761,-0.2759,-0.2751,-0.2822,-0.27,-0.2704,-0.2622,-0.2619,-0.2616,-0.2614,0,0,-0.258,-0.2699,-0.2701,-0.2765,-0.2841,-0.2881,-0.295,-0.3029,-0.3073,-0.3063,-0.3113,-0.3104,-0.3077,-0.3055,-0.3009,-0.3056,-0.3078,-0.295,-0.2948,-0.2887,-0.3038,-0.2954,-0.2946,-0.3088,-0.3092,-0.3094,-0.2883,0,-0.2584,-0.2681,-0.274,-0.2836,-0.2908,-0.2975,-0.3036,-0.3106,-0.3125,-0.3148,-0.3188,-0.3168,-0.3156,-0.312,-0.3187,-0.3068,-0.3104,-0.3128,-0.2945,-0.2938,-0.2892,-0.2958,-0.2828,-0.2633,-0.2885,-0.2886,-0.2886,0,-0.2576,-0.2666,-0.2764,-0.2927,-0.2962,-0.3008,-0.3145,-0.3192,-0.3256,-0.3259,-0.3313,-0.3272,-0.3319,-0.3282,-0.3256,-0.325,-0.3175,-0.3116,-0.3107,-0.299,-0.2866,-0.2614,-0.2628,-0.2612,-0.289,-0.289,-0.2889,0,-0.2538,-0.2687,-0.2784,-0.283,-0.2986,-0.3052,-0.3132,-0.3221,-0.3228,-0.3309,-0.325,-0.3359,-0.3282,-0.3314,-0.3191,-0.3203,-0.3113,-0.3111,-0.2983,-0.2968,-0.2809,-0.2777,-0.2835,-0.3158,-0.3159,-0.3159,-0.316,0,-0.2527,-0.2598,-0.2773,-0.2812,-0.2928,-0.305,-0.3114,-0.3201,-0.3223,-0.3194,-0.3277,-0.3228,-0.3284,-0.3219,-0.3192,-0.3064,-0.312,-0.3017,-0.2953,-0.2847,-0.2823,-0.2761,-0.2783,-0.3151,-0.3153,-0.3155,-0.3156,0,-0.2431,-0.254,-0.2655,-0.2841,-0.2894,-0.2968,-0.3051,-0.3061,-0.3103,-0.3043,-0.304,-0.3061,-0.301,-0.3027,-0.2997,-0.2975,-0.2867,-0.2883,-0.2689,-0.2613,-0.2512,-0.2545,-0.2496,-0.2432,-0.2703,-0.2701,-0.2699,0,-0.239,-0.2432,-0.2625,-0.2671,-0.2739,-0.2848,-0.2875,-0.2981,-0.2936,-0.2924,-0.2841,-0.2815,-0.2779,-0.2696,-0.2706,-0.2659,-0.2712,-0.2506,-0.2591,-0.2517,-0.2506,-0.2526,-0.2478,-0.237,-0.2365,-0.2361,-0.2358,0,-0.2291,-0.234,-0.2421,-0.2525,-0.2584,-0.2642,-0.2677,-0.2615,-0.2675,-0.2624,-0.2553,-0.2551,-0.2505,-0.2449,-0.2419,-0.2395,-0.2449,-0.2424,-0.2436,-0.235,-0.2288,-0.2187,-0.2405,-0.2324,-0.2327,-0.233,-0.2332,-0.2333,-0.2175,-0.2195,-0.2276,-0.2356,-0.2419,-0.2393,-0.2337,-0.2348,-0.2278,-0.2172,-0.2269,-0.2236,-0.2257,-0.2221,-0.2195,-0.2102,-0.2185,-0.2066,-0.2119,-0.215,-0.2118,-0.222,-0.2046,-0.2048,-0.205,-0.2051,-0.2052,0,-0.2028,-0.2046,-0.2103,-0.2172,-0.2152,-0.2241,-0.2153,-0.205,-0.1925,-0.196,-0.1928,-0.1963,-0.1903,-0.1953,-0.1895,-0.1826,-0.1803,-0.1799,-0.1818,-0.1792,-0.1929,-0.195,-0.1645,-0.1645,-0.1645,-0.1645,-0.1645,-0.1645,-0.1947,-0.1916,-0.1947,-0.1883,-0.1908,-0.1766,-0.1667,-0.1577,-0.1538,-0.1506,-0.1563,-0.1659,-0.1721,-0.1869,-0.1789,-0.1711,-0.1703,-0.1621,-0.1686,-0.1812,-0.1843,-0.1871,-0.19,-0.1589,-0.1589,-0.1461,-0.146,-0.146]},{"header":{"parameterUnit":"m.s-1","parameterCategory":2,"la1":30.2991,"la2":30.254,"lo1":-89.0895,"lo2":-89.0444,"dy":0.0017,"dx":0.0017,"nx":28,"ny":28,"refTime":"2024-04-16T09:00:00:Z","depth":"0","parameterNumber":3,"parameterNumberName":"V-component_of_CURRENTS"},"data":[0,0,0,0,0,0,0,0,0,0,0,0,0,0,0,0,0,0,0,0,0,0,0,0,0,0,0,0,0,0,0,0,0,0,0,0,0,0,0,0,0,0,0,0,0,0,0,0,0,0,0,0,0,0,0,0,0,0,0.0028,0.0029,0,0.0204,0.0206,0.0208,0.0292,0.0292,0.0292,0.0292,0.0481,0.0486,0.0491,0,0,0,0,0,0,0,0,0,0,0,0,0,-0.0041,-0.0041,0.0027,0.003,0.0032,0.0204,0.0206,0.0209,0.0292,0.0292,0.0292,0.0292,0.0479,0.0485,0.0491,0,0,0,0,0,0,0,0,0,0,0,0,0,0.0048,-0.0041,0.0027,0.0093,0.0101,0.0203,0.0207,0.021,0.0292,0.0292,0.0292,0.0291,0.0477,0.0485,0.0492,0.0547,0,0,0.0516,0.052,0,0,0,0,0,0,0,0,0.0043,0.0051,0.0081,0.0089,0.0097,0.0225,0.0252,0.0323,0.0292,0.0221,0.0292,0.0291,0.0396,0.041,0.0446,0.0556,0.0564,0.0517,0.0522,0.0525,0.0527,0,0,0,0,0,0,0,0.0036,0.0045,0.0099,0.0083,0.0093,0.0181,0.0192,0.0267,0.0309,0.0227,0.0233,0.0251,0.04,0.0438,0.0451,0.0567,0.0517,0.0524,0.0529,0.0532,0.0728,0.0729,0,0,0,0,0,0,0.0002,0.0038,0.0093,0.0104,0.0067,0.0182,0.0194,0.0185,0.0308,0.0326,0.0251,0.0254,0.0425,0.0442,0.0458,0.0533,0.0525,0.0532,0.0537,0.0728,0.0728,0.0729,0,0,0,0,0,0,-0.0001,0.0004,0.0086,0.0076,0.0092,0.0182,0.0173,0.0189,0.0225,0.0326,0.0344,0.0269,0.0425,0.0447,0.0526,0.0541,0.0536,0.0543,0.0727,0.0728,0.0729,0.0681,0,0,0,0,0,0,-0.0004,0.0001,-0.0013,0.0072,0.0091,0.0142,0.0173,0.0192,0.0235,0.0241,0.0348,0.0365,0.0427,0.0514,0.0534,0.0551,0.0549,0.0726,0.0727,0.0728,0.0682,0.0681,0.0679,0,0,0,0,0,-0.0007,-0.0031,-0.0016,-0.0008,0.0066,0.0142,0.0161,0.0226,0.0236,0.0256,0.0326,0.0362,0.0534,0.0522,0.0545,0.0564,0.0726,0.0727,0.0728,0.0683,0.0681,0.0679,0,0,0,0,0,0,-0.0065,-0.0022,-0.0004,-0.0013,0.0057,0.0156,0.0172,0.022,0.0292,0.0292,0.038,0.0404,0.0475,0.0525,0.0509,0.0622,0.0632,0.0638,0.0589,0.0588,0.0587,0.055,0.0556,0,0,0,0,0,-0.0087,-0.0101,-0.0024,-0.003,-0.0006,0.0081,0.0119,0.0168,0.0243,0.0274,0.0354,0.043,0.0501,0.0546,0.0616,0.0686,0.0696,0.071,0.0708,0.0706,0.0691,0.0725,0.0724,0.0733,0.0733,0.0733,0,0,-0.0111,-0.009,-0.0096,-0.0043,0.0007,0.005,0.0103,0.0153,0.0197,0.0283,0.0359,0.0429,0.0516,0.0592,0.0628,0.0636,0.0706,0.0708,0.0705,0.0691,0.0726,0.0725,0.0724,0.0733,0.0733,0.0733,0,0,-0.0155,-0.015,-0.0165,-0.0111,-0.004,0.0019,0.0028,0.013,0.0179,0.0266,0.0329,0.0406,0.0525,0.0594,0.064,0.0671,0.0692,0.0689,0.0662,0.0696,0.0694,0.0694,0.0685,0.0684,0.0694,0.0693,0.0693,0,-0.0182,-0.0198,-0.0149,-0.013,-0.0101,-0.0004,0.0011,0.0088,0.0211,0.0244,0.0278,0.0443,0.0526,0.0607,0.0623,0.0668,0.0667,0.0663,0.0691,0.0691,0.0691,0.0682,0.0682,0.0691,0.0692,0.0692,0.0692,0,-0.0219,-0.0222,-0.0225,-0.0184,-0.0136,-0.011,-0.0006,0.0053,0.0118,0.0199,0.0293,0.0414,0.0502,0.0551,0.0605,0.0651,0.0642,0.0678,0.0689,0.0687,0.0678,0.0678,0.0688,0.0689,0.069,0.069,0,0,-0.0302,-0.0267,-0.0264,-0.027,-0.0171,-0.0146,-0.0071,0.001,0.004,0.0176,0.0217,0.0371,0.0427,0.0481,0.0563,0.0613,0.0627,0.064,0.0642,0.0616,0.0657,0.0718,0.0724,0.0661,0.0661,0.0661,0.0642,0,-0.0348,-0.037,-0.0317,-0.0318,-0.0323,-0.0219,-0.0164,-0.0069,0.0024,0.01,0.0231,0.0308,0.0404,0.044,0.0507,0.0598,0.0627,0.0625,0.0675,0.0675,0.0721,0.0728,0.078,0.0774,0.0642,0.0642,0.0642,0,-0.0389,-0.0411,-0.0436,-0.0422,-0.0413,-0.038,-0.0315,-0.025,-0.0106,-0.0035,0.0073,0.0179,0.029,0.0362,0.0499,0.0487,0.0556,0.0626,0.0628,0.0701,0.0739,0.0762,0.0779,0.0959,0.0643,0.0643,0.0643,0,-0.049,-0.049,-0.0535,-0.0521,-0.0469,-0.046,-0.0426,-0.0298,-0.0255,-0.0129,-0.0087,0.0064,0.0134,0.0252,0.0437,0.0448,0.0569,0.0602,0.0714,0.0716,0.078,0.0789,0.0968,0.0669,0.0669,0.0669,0.0669,0,-0.0555,-0.0588,-0.0594,-0.0611,-0.0661,-0.0578,-0.0578,-0.0508,-0.0401,-0.0352,-0.018,-0.011,0.011,0.0237,0.0379,0.0554,0.0522,0.0699,0.0726,0.0764,0.0772,0.0948,0.1008,0.0669,0.0669,0.0669,0.0669,0,-0.0626,-0.0628,-0.0692,-0.0699,-0.0703,-0.0738,-0.0695,-0.0676,-0.0569,-0.0503,-0.0471,-0.0259,-0.0077,0.0142,0.0342,0.048,0.0743,0.0701,0.0718,0.075,0.1028,0.1081,0.1215,0.1317,0.0797,0.0799,0.08,0,-0.0658,-0.0698,-0.0778,-0.0826,-0.0828,-0.0858,-0.0854,-0.077,-0.073,-0.0578,-0.055,-0.0358,-0.0174,0.0142,0.0426,0.067,0.0807,0.0832,0.089,0.1052,0.1131,0.1152,0.1229,0.0932,0.0934,0.0936,0.0938,0,-0.0721,-0.0754,-0.0818,-0.0927,-0.0968,-0.1005,-0.0993,-0.0984,-0.0855,-0.0779,-0.0628,-0.0481,-0.012,0.0235,0.0573,0.072,0.097,0.0878,0.1056,0.1261,0.1284,0.1392,0.0902,0.0955,0.0953,0.0952,0.0951,0.095,-0.0765,-0.084,-0.0926,-0.1027,-0.1088,-0.1115,-0.1116,-0.1068,-0.1008,-0.0831,-0.0689,-0.0416,0.01,0.0618,0.0792,0.1193,0.1128,0.1309,0.1353,0.1354,0.1493,0.1027,0.112,0.1119,0.1119,0.1118,0.1118,0,-0.0819,-0.0899,-0.1006,-0.1121,-0.1197,-0.1195,-0.1173,-0.1125,-0.1043,-0.0831,-0.0641,-0.0045,0.0448,0.0906,0.147,0.1671,0.1706,0.1756,0.1813,0.1867,0.1472,0.1525,0.1701,0.1701,0.1701,0.1701,0.1701,0.17,-0.0849,-0.0969,-0.1037,-0.1186,-0.1249,-0.127,-0.1247,-0.116,-0.0992,-0.0626,-0.027,0.0046,0.0697,0.1581,0.2094,0.2121,0.23,0.2245,0.2344,0.21,0.2062,0.2026,0.2096,0.2389,0.239,0.2744,0.2747,0.275]}],[{"header":{"parameterUnit":"m.s-1","parameterCategory":2,"la1":30.2991,"la2":30.254,"lo1":-89.0895,"lo2":-89.0444,"dy":0.0017,"dx":0.0017,"nx":28,"ny":28,"refTime":"2024-04-16T09:00:00:Z","depth":"2","parameterNumber":2,"parameterNumberName":"U-component_of_CURRENTS"},"data":[0,0,0,0,0,0,0,0,0,0,0,0,0,0,0,0,0,0,0,0,0,0,0,0,0,0,0,0,0,0,0,0,0,0,0,0,0,0,0,0,0,0,0,0,0,0,0,0,0,0,0,0,0,0,0,0,0,0,-0.2688,-0.2689,0,-0.266,-0.2659,-0.2657,-0.2624,-0.2624,-0.2625,-0.2625,-0.247,-0.2465,-0.2461,0,0,0,0,0,0,0,0,0,0,0,0,0,-0.252,-0.2523,-0.2688,-0.2689,-0.269,-0.266,-0.2659,-0.2657,-0.2624,-0.2624,-0.2625,-0.2625,-0.2471,-0.2466,-0.246,0,0,0,0,0,0,0,0,0,0,0,0,0,-0.2542,-0.2524,-0.2688,-0.2678,-0.2677,-0.266,-0.2659,-0.2657,-0.2623,-0.2624,-0.2625,-0.2626,-0.2473,-0.2466,-0.2459,-0.24,0,0,-0.2438,-0.2435,0,0,0,0,0,0,0,0,-0.2541,-0.2547,-0.2679,-0.2679,-0.2678,-0.2656,-0.2543,-0.2569,-0.2623,-0.2632,-0.2625,-0.2626,-0.2527,-0.2516,-0.2494,-0.2393,-0.2386,-0.2438,-0.2433,-0.243,-0.2428,0,0,0,0,0,0,0,-0.2539,-0.2547,-0.2665,-0.268,-0.2679,-0.2609,-0.2614,-0.2546,-0.2564,-0.2631,-0.2631,-0.2646,-0.2525,-0.2501,-0.249,-0.2384,-0.2438,-0.2432,-0.2427,-0.2424,-0.2256,-0.2256,0,0,0,0,0,0,-0.2576,-0.2547,-0.2666,-0.2665,-0.2623,-0.2613,-0.2618,-0.2653,-0.2567,-0.256,-0.2646,-0.2645,-0.2512,-0.2498,-0.2484,-0.2487,-0.243,-0.2424,-0.242,-0.2257,-0.2256,-0.2256,0,0,0,0,0,0,-0.2573,-0.2588,-0.2668,-0.2612,-0.2619,-0.2618,-0.2656,-0.2652,-0.2647,-0.2582,-0.257,-0.2648,-0.2512,-0.2494,-0.2425,-0.2478,-0.2421,-0.2414,-0.2257,-0.2256,-0.2256,-0.2442,0,0,0,0,0,0,-0.2569,-0.2587,-0.261,-0.2617,-0.2625,-0.2665,-0.2657,-0.2652,-0.2659,-0.2658,-0.2579,-0.2565,-0.2512,-0.2435,-0.2418,-0.2467,-0.2409,-0.2257,-0.2257,-0.2256,-0.2436,-0.2448,-0.2458,0,0,0,0,0,-0.2563,-0.2601,-0.2612,-0.2626,-0.2662,-0.2667,-0.2662,-0.2654,-0.2659,-0.2651,-0.2595,-0.2568,-0.242,-0.2429,-0.2408,-0.2458,-0.2258,-0.2257,-0.2256,-0.2431,-0.2446,-0.2458,0,0,0,0,0,0,-0.2535,-0.2603,-0.2614,-0.267,-0.2673,-0.2666,-0.2667,-0.2665,-0.2616,-0.2613,-0.2549,-0.2529,-0.2488,-0.2428,-0.2439,-0.2401,-0.234,-0.2336,-0.248,-0.2493,-0.2504,-0.2549,-0.2403,0,0,0,0,0,-0.2545,-0.2588,-0.2627,-0.2661,-0.2677,-0.2672,-0.2672,-0.267,-0.2641,-0.2623,-0.2572,-0.2512,-0.2465,-0.2445,-0.2372,-0.2347,-0.2301,-0.2364,-0.2375,-0.2385,-0.2404,-0.244,-0.2459,-0.2254,-0.2254,-0.2254,0,0,-0.2538,-0.2584,-0.2605,-0.2657,-0.266,-0.2686,-0.2671,-0.2683,-0.2707,-0.2609,-0.2601,-0.2534,-0.2457,-0.2432,-0.2412,-0.2397,-0.2395,-0.2384,-0.2395,-0.2407,-0.2442,-0.2463,-0.2481,-0.2253,-0.2253,-0.2253,0,0,-0.254,-0.2596,-0.2627,-0.2646,-0.2678,-0.269,-0.2705,-0.2707,-0.2714,-0.2682,-0.2639,-0.2621,-0.2508,-0.2514,-0.2492,-0.2516,-0.244,-0.2471,-0.2588,-0.2625,-0.2644,-0.2661,-0.2546,-0.2552,-0.2497,-0.2497,-0.2498,0,-0.2525,-0.2593,-0.2625,-0.266,-0.27,-0.2706,-0.2748,-0.2751,-0.2724,-0.2734,-0.2693,-0.2615,-0.2569,-0.2601,-0.2613,-0.2556,-0.2492,-0.256,-0.2648,-0.2664,-0.2678,-0.2558,-0.2561,-0.2506,-0.2505,-0.2504,-0.2504,0,-0.2548,-0.2606,-0.2627,-0.2696,-0.2731,-0.2763,-0.2809,-0.2823,-0.2828,-0.282,-0.2823,-0.2767,-0.2724,-0.2728,-0.2677,-0.2759,-0.2644,-0.2653,-0.2638,-0.2712,-0.2576,-0.2577,-0.2519,-0.2516,-0.2513,-0.2511,0,0,-0.2503,-0.2626,-0.2628,-0.2687,-0.2767,-0.28,-0.2868,-0.2926,-0.2939,-0.2939,-0.2956,-0.2959,-0.2918,-0.2891,-0.2856,-0.2919,-0.2952,-0.2834,-0.2832,-0.2757,-0.2907,-0.2836,-0.2827,-0.2981,-0.2985,-0.2987,-0.2743,0,-0.2509,-0.2608,-0.2668,-0.2758,-0.283,-0.2889,-0.293,-0.2978,-0.2983,-0.2974,-0.3013,-0.2975,-0.2985,-0.2948,-0.3026,-0.2938,-0.2973,-0.3008,-0.2812,-0.2804,-0.277,-0.2837,-0.2625,-0.2396,-0.2743,-0.2743,-0.2743,0,-0.2502,-0.2593,-0.2694,-0.2829,-0.2858,-0.2899,-0.2995,-0.3022,-0.3038,-0.3026,-0.3057,-0.3012,-0.307,-0.3067,-0.3061,-0.3066,-0.3007,-0.2975,-0.2965,-0.285,-0.2741,-0.2389,-0.2383,-0.2743,-0.2743,-0.2743,-0.2743,0,-0.2463,-0.2607,-0.2705,-0.275,-0.288,-0.2936,-0.2992,-0.303,-0.3011,-0.3049,-0.2989,-0.3062,-0.3015,-0.3053,-0.2987,-0.3005,-0.2941,-0.2947,-0.2829,-0.2814,-0.2574,-0.2537,-0.2987,-0.2987,-0.2987,-0.2988,-0.2989,0,-0.2452,-0.2518,-0.2694,-0.2734,-0.2823,-0.2921,-0.2941,-0.2996,-0.2974,-0.2916,-0.299,-0.2947,-0.302,-0.2976,-0.2965,-0.2871,-0.2919,-0.2851,-0.2793,-0.2616,-0.2588,-0.2861,-0.285,-0.2979,-0.2981,-0.2983,-0.2984,0,-0.2354,-0.2467,-0.2581,-0.2749,-0.2796,-0.2848,-0.2891,-0.2864,-0.2872,-0.2796,-0.2797,-0.281,-0.2784,-0.2806,-0.2797,-0.2779,-0.2746,-0.2708,-0.2427,-0.2348,-0.2569,-0.257,-0.2522,-0.2519,-0.2516,-0.2514,-0.2511,0,-0.2314,-0.236,-0.2554,-0.26,-0.267,-0.2747,-0.2752,-0.2806,-0.2737,-0.2706,-0.2628,-0.2619,-0.2584,-0.2519,-0.2521,-0.2463,-0.2608,-0.2239,-0.2321,-0.2597,-0.2543,-0.2548,-0.2552,-0.1989,-0.1983,-0.1978,-0.1974,0,-0.2217,-0.2272,-0.2353,-0.2466,-0.2524,-0.2559,-0.2569,-0.2491,-0.2498,-0.2453,-0.2381,-0.238,-0.2335,-0.2223,-0.2183,-0.2148,-0.225,-0.2136,-0.2505,-0.2193,-0.2091,-0.204,-0.2062,-0.1928,-0.1933,-0.1936,-0.1939,-0.1941,-0.2103,-0.2128,-0.2218,-0.2301,-0.2361,-0.2324,-0.2249,-0.2242,-0.2145,-0.2017,-0.2114,-0.2049,-0.2064,-0.1914,-0.1843,-0.1793,-0.196,-0.189,-0.1906,-0.1927,-0.1964,-0.1871,-0.166,-0.1663,-0.1665,-0.1667,-0.1669,0,-0.1953,-0.1982,-0.2046,-0.2087,-0.2038,-0.2155,-0.2069,-0.1948,-0.181,-0.1802,-0.1756,-0.1594,-0.1523,-0.1559,-0.1407,-0.1404,-0.14,-0.1359,-0.1345,-0.1388,-0.1428,-0.1443,-0.0997,-0.0996,-0.0994,-0.0993,0,0,-0.1872,-0.1851,-0.1889,-0.1765,-0.1762,-0.1624,-0.1546,-0.1464,-0.1408,-0.1309,-0.1277,-0.1393,-0.1468,-0.1214,-0.1172,-0.1054,-0.1208,-0.1003,-0.1533,-0.1554,-0.1591,-0.1716,-0.1786,0,0,0,0,0]},{"header":{"parameterUnit":"m.s-1","parameterCategory":2,"la1":30.2991,"la2":30.254,"lo1":-89.0895,"lo2":-89.0444,"dy":0.0017,"dx":0.0017,"nx":28,"ny":28,"refTime":"2024-04-16T09:00:00:Z","depth":"2","parameterNumber":3,"parameterNumberName":"V-component_of_CURRENTS"},"data":[0,0,0,0,0,0,0,0,0,0,0,0,0,0,0,0,0,0,0,0,0,0,0,0,0,0,0,0,0,0,0,0,0,0,0,0,0,0,0,0,0,0,0,0,0,0,0,0,0,0,0,0,0,0,0,0,0,0,-0.0069,-0.0067,0,0.0093,0.0095,0.0097,0.0171,0.017,0.017,0.017,0.031,0.0314,0.0317,0,0,0,0,0,0,0,0,0,0,0,0,0,-0.0152,-0.0152,-0.0069,-0.0067,-0.0065,0.0093,0.0095,0.0097,0.0171,0.017,0.017,0.017,0.0308,0.0313,0.0318,0,0,0,0,0,0,0,0,0,0,0,0,0,-0.0065,-0.0152,-0.0069,-0.001,-0.0003,0.0092,0.0095,0.0098,0.0171,0.017,0.017,0.017,0.0307,0.0313,0.0318,0.0362,0,0,0.0336,0.0339,0,0,0,0,0,0,0,0,-0.007,-0.0062,-0.0021,-0.0014,-0.0006,0.0111,0.0117,0.0185,0.0171,0.0105,0.017,0.017,0.0241,0.0252,0.0285,0.0368,0.0374,0.0337,0.0341,0.0343,0.0345,0,0,0,0,0,0,0,-0.0077,-0.0068,-0.0004,-0.0018,-0.001,0.0064,0.0075,0.0131,0.0173,0.0111,0.0117,0.0134,0.0245,0.0279,0.0288,0.0376,0.0337,0.0342,0.0346,0.0348,0.0512,0.0513,0,0,0,0,0,0,-0.0106,-0.0075,-0.0009,0.0001,-0.004,0.0065,0.0077,0.0074,0.0173,0.0188,0.0134,0.0137,0.0269,0.0281,0.0294,0.037,0.0343,0.0349,0.0352,0.0512,0.0513,0.0514,0,0,0,0,0,0,-0.0109,-0.0103,-0.0016,-0.0032,-0.0016,0.0066,0.0063,0.0077,0.0115,0.0191,0.0205,0.0156,0.0269,0.0285,0.0353,0.0375,0.0351,0.0357,0.0511,0.0512,0.0513,0.0509,0,0,0,0,0,0,-0.0113,-0.0106,-0.0113,-0.0035,-0.0016,0.0039,0.0064,0.0081,0.0125,0.0131,0.0214,0.0227,0.027,0.0344,0.0359,0.0382,0.0361,0.051,0.0511,0.0513,0.0508,0.051,0.0512,0,0,0,0,0,-0.0116,-0.0133,-0.0115,-0.0106,-0.0032,0.0039,0.0056,0.0115,0.0126,0.0147,0.0205,0.0225,0.0364,0.035,0.0367,0.0393,0.0509,0.0511,0.0513,0.0508,0.051,0.0512,0,0,0,0,0,0,-0.0169,-0.0124,-0.0103,-0.0105,-0.0037,0.0051,0.0067,0.0114,0.0178,0.0177,0.0245,0.0263,0.0329,0.0359,0.0342,0.0442,0.0436,0.0441,0.0426,0.0429,0.0431,0.0382,0.0366,0,0,0,0,0,-0.0187,-0.0194,-0.0118,-0.0118,-0.0094,-0.0012,0.0024,0.007,0.0136,0.0164,0.0231,0.0291,0.0351,0.0386,0.0443,0.0503,0.0501,0.0526,0.0528,0.0529,0.0501,0.0539,0.0541,0.052,0.052,0.052,0,0,-0.0208,-0.0184,-0.0186,-0.013,-0.0083,-0.0041,0.0008,0.0057,0.0101,0.0168,0.0239,0.0302,0.0368,0.0438,0.0469,0.0466,0.0534,0.0532,0.0533,0.0503,0.0541,0.0542,0.0544,0.0521,0.0521,0.052,0,0,-0.0249,-0.0234,-0.0246,-0.0193,-0.0123,-0.0067,-0.0055,0.0042,0.0089,0.0172,0.0227,0.0301,0.0398,0.0457,0.0494,0.0537,0.0541,0.0554,0.053,0.0568,0.057,0.0571,0.0561,0.0562,0.0556,0.0556,0.0556,0,-0.0273,-0.0282,-0.0231,-0.0211,-0.0182,-0.0086,-0.0071,0.0005,0.012,0.0146,0.0185,0.033,0.0405,0.0475,0.0501,0.0541,0.0539,0.052,0.0569,0.057,0.0571,0.0562,0.0562,0.0556,0.0556,0.0556,0.0556,0,-0.0309,-0.0305,-0.0306,-0.0262,-0.0214,-0.0188,-0.0085,-0.0025,0.0042,0.0113,0.0201,0.0318,0.0387,0.0446,0.0495,0.0545,0.0531,0.0566,0.0558,0.0573,0.0562,0.0562,0.0557,0.0557,0.0557,0.0557,0,0,-0.0389,-0.0348,-0.0345,-0.0349,-0.0246,-0.0222,-0.0146,-0.0072,-0.0047,0.0088,0.0121,0.0274,0.0322,0.0366,0.045,0.0509,0.0546,0.0537,0.0539,0.0516,0.0584,0.0641,0.0646,0.0587,0.0588,0.0588,0.0569,0,-0.0435,-0.0452,-0.0397,-0.0395,-0.0398,-0.0294,-0.0241,-0.0153,-0.0063,0.0005,0.0132,0.0203,0.0297,0.0336,0.0409,0.0514,0.0547,0.0544,0.0582,0.0581,0.0622,0.065,0.0612,0.0598,0.0569,0.0569,0.0569,0,-0.0476,-0.0494,-0.0514,-0.05,-0.0492,-0.0458,-0.0396,-0.0334,-0.0205,-0.0136,-0.004,0.0061,0.0175,0.0256,0.0401,0.039,0.0467,0.055,0.0552,0.0599,0.064,0.0583,0.06,0.057,0.057,0.057,0.057,0,-0.0578,-0.0574,-0.0614,-0.0599,-0.0547,-0.0537,-0.0505,-0.0388,-0.0346,-0.0232,-0.0186,-0.0053,0.003,0.0148,0.0348,0.0359,0.0498,0.0532,0.0639,0.0641,0.0612,0.0613,0.06,0.06,0.06,0.06,0.06,0,-0.0646,-0.0675,-0.0673,-0.0688,-0.0738,-0.0657,-0.066,-0.0595,-0.0491,-0.0444,-0.0284,-0.0206,0.0013,0.0146,0.0289,0.0472,0.0445,0.0621,0.065,0.0611,0.0612,0.0592,0.0592,0.06,0.06,0.06,0.06,0,-0.072,-0.0716,-0.0775,-0.0777,-0.078,-0.0816,-0.0768,-0.0754,-0.0646,-0.0574,-0.054,-0.033,-0.0142,0.0069,0.0279,0.0406,0.0568,0.0631,0.0555,0.0579,0.068,0.0679,0.0712,0.0714,0.0716,0.0717,0.0718,0,-0.0755,-0.0793,-0.0859,-0.0903,-0.0903,-0.0931,-0.0928,-0.0842,-0.0798,-0.0632,-0.0596,-0.0399,-0.022,0.0096,0.0355,0.0581,0.0603,0.0661,0.0701,0.0671,0.0696,0.0693,0.069,0.0638,0.0639,0.0639,0.064,0,-0.0825,-0.085,-0.0907,-0.1006,-0.1042,-0.1075,-0.1056,-0.1034,-0.0899,-0.0814,-0.0651,-0.0506,-0.0164,0.0125,0.0439,0.0566,0.0628,0.0678,0.0666,0.0641,0.0608,0.0631,0.0629,0.0643,0.0643,0.0642,0.0642,0.0642,-0.0874,-0.0942,-0.1017,-0.1111,-0.1163,-0.1178,-0.1171,-0.111,-0.1037,-0.0846,-0.0705,-0.0455,-0.0172,0.0298,0.051,0.0701,0.0706,0.0742,0.0738,0.0733,0.0754,0.073,0.0786,0.0786,0.0787,0.0787,0.0787,0,-0.0944,-0.1004,-0.1105,-0.1201,-0.1264,-0.1261,-0.1221,-0.1162,-0.106,-0.0861,-0.0673,-0.0354,-0.0015,0.0268,0.0589,0.0781,0.075,0.0788,0.0715,0.071,0.0707,0.0723,0.0749,0.0749,0.075,0.075,0,0,-0.0979,-0.1097,-0.116,-0.1275,-0.1314,-0.132,-0.1286,-0.1185,-0.1025,-0.0824,-0.0624,-0.0329,0.0014,0.0233,0.0467,0.0624,0.0612,0.0623,0.0633,0.0516,0.051,0.0659,0.0679,0,0,0,0,0]}],[{"header":{"parameterUnit":"m.s-1","parameterCategory":2,"la1":30.2991,"la2":30.254,"lo1":-89.0895,"lo2":-89.0444,"dy":0.0017,"dx":0.0017,"nx":28,"ny":28,"refTime":"2024-04-16T09:00:00:Z","depth":"4","parameterNumber":2,"parameterNumberName":"U-component_of_CURRENTS"},"data":[0,0,0,0,0,0,0,0,0,0,0,0,0,0,0,0,0,0,0,0,0,0,0,0,0,0,0,0,0,0,0,0,0,0,0,0,0,0,0,0,0,0,0,0,0,0,0,0,0,0,0,0,0,0,0,0,0,0,-0.0962,-0.0963,0,-0.1046,-0.1046,-0.1047,-0.1077,-0.1077,-0.1077,-0.1077,-0.1171,-0.1174,-0.1176,0,0,0,0,0,0,0,0,0,0,0,0,0,-0.0906,-0.0906,-0.0962,-0.0963,-0.0965,-0.1046,-0.1046,-0.1047,-0.1077,-0.1077,-0.1077,-0.1077,-0.117,-0.1173,-0.1176,0,0,0,0,0,0,0,0,0,0,0,0,0,-0.095,-0.0906,-0.0962,-0.0991,-0.0995,-0.1045,-0.1046,-0.1048,-0.1077,-0.1077,-0.1077,-0.1076,-0.1169,-0.1173,-0.1177,-0.1201,0,0,-0.1189,-0.119,0,0,0,0,0,0,0,0,-0.0948,-0.0952,-0.0986,-0.0989,-0.0994,-0.1053,-0.1062,-0.1101,-0.1077,-0.1042,-0.1077,-0.1076,-0.1135,-0.1142,-0.1153,-0.1206,-0.121,-0.1189,-0.1191,-0.1193,-0.1194,0,0,0,0,0,0,0,-0.0944,-0.0949,-0.0992,-0.0987,-0.0992,-0.1028,-0.1033,-0.1069,-0.1086,-0.1045,-0.1048,-0.1063,-0.1137,-0.1149,-0.1155,-0.1211,-0.1189,-0.1192,-0.1195,-0.1196,-0.1315,-0.1316,0,0,0,0,0,0,-0.0936,-0.0946,-0.0989,-0.0995,-0.0974,-0.1028,-0.1034,-0.1032,-0.1085,-0.1094,-0.1063,-0.1064,-0.1142,-0.1151,-0.1159,-0.1235,-0.1193,-0.1196,-0.1199,-0.1314,-0.1315,-0.1316,0,0,0,0,0,0,-0.0935,-0.0939,-0.0986,-0.0976,-0.0985,-0.1029,-0.1026,-0.1033,-0.1063,-0.1099,-0.1107,-0.1087,-0.1143,-0.1153,-0.1215,-0.1237,-0.1198,-0.1202,-0.1313,-0.1314,-0.1315,-0.1359,0,0,0,0,0,0,-0.0932,-0.0937,-0.0936,-0.0975,-0.0985,-0.102,-0.1027,-0.1035,-0.1072,-0.1075,-0.1123,-0.113,-0.1144,-0.1209,-0.1218,-0.1242,-0.1205,-0.1312,-0.1314,-0.1315,-0.1356,-0.1362,-0.1366,0,0,0,0,0,-0.093,-0.0924,-0.0935,-0.0942,-0.098,-0.1021,-0.103,-0.106,-0.1074,-0.1086,-0.113,-0.113,-0.1225,-0.1214,-0.1224,-0.1249,-0.1311,-0.1313,-0.1315,-0.1354,-0.1361,-0.1366,0,0,0,0,0,0,-0.0901,-0.0928,-0.0941,-0.0944,-0.0984,-0.1027,-0.1046,-0.1071,-0.1115,-0.1131,-0.1155,-0.1166,-0.121,-0.1231,-0.1218,-0.1285,-0.1262,-0.1267,-0.1288,-0.1295,-0.1299,-0.1317,-0.1208,0,0,0,0,0,-0.0894,-0.0895,-0.0937,-0.0943,-0.0964,-0.101,-0.1033,-0.1064,-0.1108,-0.1127,-0.1169,-0.1206,-0.1224,-0.1263,-0.1276,-0.1342,-0.1364,-0.1358,-0.1363,-0.1367,-0.1388,-0.1416,-0.1426,-0.1322,-0.1322,-0.1322,0,0,-0.0892,-0.0902,-0.0908,-0.0937,-0.0971,-0.102,-0.1023,-0.1072,-0.1121,-0.1133,-0.1214,-0.1217,-0.1236,-0.1287,-0.1311,-0.1318,-0.1415,-0.137,-0.1373,-0.1392,-0.1419,-0.1429,-0.1438,-0.1324,-0.1323,-0.1323,0,0,-0.0895,-0.0893,-0.0908,-0.0942,-0.0999,-0.1033,-0.1052,-0.1119,-0.1151,-0.1232,-0.1228,-0.1262,-0.1328,-0.1339,-0.1352,-0.1399,-0.1416,-0.1396,-0.147,-0.1496,-0.1505,-0.1514,-0.1586,-0.16,-0.1427,-0.1427,-0.1427,0,-0.0894,-0.0912,-0.0923,-0.0958,-0.0998,-0.1044,-0.1098,-0.1139,-0.1222,-0.1255,-0.1267,-0.1356,-0.1353,-0.1411,-0.1412,-0.1411,-0.1445,-0.1446,-0.1504,-0.1512,-0.152,-0.1592,-0.1607,-0.1429,-0.1429,-0.1429,-0.1428,0,-0.0918,-0.0946,-0.096,-0.1018,-0.1062,-0.111,-0.1178,-0.1238,-0.1293,-0.1331,-0.1407,-0.1434,-0.1502,-0.148,-0.1463,-0.1514,-0.1527,-0.1483,-0.1491,-0.1533,-0.1606,-0.1621,-0.1432,-0.1432,-0.1431,-0.143,0,0,-0.0886,-0.0962,-0.0974,-0.1007,-0.11,-0.1133,-0.1232,-0.1312,-0.1381,-0.1457,-0.1551,-0.1563,-0.1595,-0.1611,-0.1605,-0.1617,-0.1682,-0.1583,-0.1583,-0.1661,-0.1788,-0.1611,-0.161,-0.1647,-0.1649,-0.165,-0.1829,0,-0.0909,-0.0976,-0.102,-0.1102,-0.1144,-0.1222,-0.1308,-0.1389,-0.1468,-0.1568,-0.1606,-0.1672,-0.1644,-0.1688,-0.1708,-0.1668,-0.1719,-0.1641,-0.1732,-0.1736,-0.1575,-0.1619,-0.1657,-0.184,-0.1844,-0.1846,-0.1848,0,-0.0918,-0.0964,-0.1047,-0.1141,-0.1171,-0.1243,-0.1385,-0.1465,-0.1598,-0.167,-0.1781,-0.1808,-0.1878,-0.1827,-0.1891,-0.1848,-0.184,-0.1809,-0.1814,-0.1643,-0.1584,-0.1781,-0.1875,-0.1873,-0.1871,-0.1869,-0.1867,0,-0.0866,-0.0971,-0.1032,-0.1067,-0.1197,-0.1268,-0.1354,-0.1498,-0.1584,-0.1744,-0.1834,-0.1936,-0.2001,-0.2018,-0.1978,-0.1952,-0.2014,-0.1977,-0.1838,-0.183,-0.1919,-0.1908,-0.2029,-0.2028,-0.2028,-0.2027,-0.2027,0,-0.0829,-0.0868,-0.1019,-0.1046,-0.1136,-0.1253,-0.1372,-0.1483,-0.1675,-0.1773,-0.1891,-0.1987,-0.2036,-0.2074,-0.2047,-0.1992,-0.21,-0.1868,-0.1852,-0.1938,-0.1927,-0.1933,-0.1919,-0.2034,-0.2033,-0.2031,-0.203,0,-0.0729,-0.081,-0.0891,-0.106,-0.1104,-0.1176,-0.1365,-0.1465,-0.1659,-0.1817,-0.1875,-0.2041,-0.2075,-0.2108,-0.2114,-0.2055,-0.2017,-0.1968,-0.2105,-0.2092,-0.1824,-0.1811,-0.1885,-0.188,-0.1876,-0.1872,-0.1869,0,-0.0695,-0.0735,-0.0894,-0.0918,-0.0987,-0.111,-0.1205,-0.1432,-0.1563,-0.1818,-0.1895,-0.1993,-0.2063,-0.1988,-0.2006,-0.1999,-0.1935,-0.1963,-0.1849,-0.1827,-0.1806,-0.1799,-0.1792,-0.1862,-0.1861,-0.186,-0.1859,0,-0.0651,-0.0713,-0.0731,-0.0829,-0.0912,-0.102,-0.1191,-0.1295,-0.1568,-0.1728,-0.1849,-0.1868,-0.1901,-0.1886,-0.1871,-0.1851,-0.1967,-0.1918,-0.1926,-0.182,-0.1801,-0.1782,-0.178,-0.1844,-0.1846,-0.1848,-0.1849,0,-0.0603,-0.0599,-0.0658,-0.0705,-0.0784,-0.0933,-0.1042,-0.1213,-0.1371,-0.169,-0.1694,-0.1791,-0.1879,-0.1811,-0.1802,-0.1757,-0.1726,-0.1677,-0.1698,-0.1715,-0.1558,-0.1502,-0.1456,0,0,0,0,0,-0.0596,-0.0545,-0.0563,-0.0613,-0.0692,-0.0792,-0.1028,-0.1173,-0.144,-0.1478,-0.1605,-0.1619,-0.1613,-0.1652,-0.1564,-0.1713,-0.1727,-0.1607,-0.1682,-0.1763,-0.178,-0.1599,0,0,0,0,0,0,-0.0543,-0.053,-0.0517,-0.0537,-0.0568,-0.0718,-0.0879,-0.1075,-0.1135,-0.1361,-0.135,-0.1481,-0.1475,-0.1593,-0.1501,-0.1515,-0.1527,-0.1661,-0.1657,-0.1753,-0.1768,-0.1782,-0.1603,0,0,0,0,0]},{"header":{"parameterUnit":"m.s-1","parameterCategory":2,"la1":30.2991,"la2":30.254,"lo1":-89.0895,"lo2":-89.0444,"dy":0.0017,"dx":0.0017,"nx":28,"ny":28,"refTime":"2024-04-16T09:00:00:Z","depth":"4","parameterNumber":3,"parameterNumberName":"V-component_of_CURRENTS"},"data":[0,0,0,0,0,0,0,0,0,0,0,0,0,0,0,0,0,0,0,0,0,0,0,0,0,0,0,0,0,0,0,0,0,0,0,0,0,0,0,0,0,0,0,0,0,0,0,0,0,0,0,0,0,0,0,0,0,0,-0.0361,-0.0361,0,-0.0338,-0.0337,-0.0337,-0.0325,-0.0325,-0.0325,-0.0325,-0.0255,-0.0253,-0.0251,0,0,0,0,0,0,0,0,0,0,0,0,0,-0.033,-0.0331,-0.0362,-0.0361,-0.0361,-0.0338,-0.0337,-0.0337,-0.0325,-0.0325,-0.0325,-0.0325,-0.0256,-0.0253,-0.0251,0,0,0,0,0,0,0,0,0,0,0,0,0,-0.0329,-0.0332,-0.0362,-0.0352,-0.0351,-0.0338,-0.0337,-0.0337,-0.0325,-0.0325,-0.0325,-0.0325,-0.0256,-0.0254,-0.0251,-0.0233,0,0,-0.0242,-0.0241,0,0,0,0,0,0,0,0,-0.0329,-0.033,-0.0354,-0.0353,-0.0352,-0.0335,-0.0301,-0.03,-0.0325,-0.0334,-0.0325,-0.0325,-0.0278,-0.0273,-0.0268,-0.0229,-0.0226,-0.0242,-0.024,-0.0239,-0.0238,0,0,0,0,0,0,0,-0.0329,-0.033,-0.0352,-0.0354,-0.0352,-0.0327,-0.0327,-0.03,-0.0305,-0.0333,-0.0333,-0.0331,-0.0277,-0.0271,-0.0267,-0.0225,-0.0242,-0.024,-0.0238,-0.0237,-0.0165,-0.0165,0,0,0,0,0,0,-0.0337,-0.0331,-0.0352,-0.0351,-0.0341,-0.0328,-0.0328,-0.034,-0.0306,-0.0301,-0.0331,-0.033,-0.0276,-0.027,-0.0264,-0.0244,-0.0239,-0.0236,-0.0235,-0.0165,-0.0165,-0.0165,0,0,0,0,0,0,-0.0336,-0.0339,-0.0353,-0.034,-0.034,-0.0329,-0.0341,-0.0339,-0.0339,-0.0305,-0.0299,-0.0334,-0.0276,-0.0268,-0.0247,-0.0241,-0.0235,-0.0233,-0.0166,-0.0165,-0.0165,-0.0202,0,0,0,0,0,0,-0.0336,-0.034,-0.0348,-0.0341,-0.0341,-0.0354,-0.0341,-0.0339,-0.0338,-0.0337,-0.0305,-0.0298,-0.0275,-0.0251,-0.0244,-0.0237,-0.023,-0.0166,-0.0166,-0.0165,-0.0201,-0.0203,-0.0204,0,0,0,0,0,-0.0335,-0.0354,-0.0349,-0.0352,-0.0355,-0.0354,-0.0352,-0.0343,-0.0338,-0.0342,-0.0319,-0.03,-0.0243,-0.0249,-0.024,-0.0233,-0.0166,-0.0166,-0.0165,-0.02,-0.0202,-0.0204,0,0,0,0,0,0,-0.0345,-0.0354,-0.0349,-0.037,-0.0364,-0.0352,-0.0355,-0.0347,-0.0333,-0.0335,-0.0299,-0.0291,-0.0276,-0.0246,-0.0254,-0.021,-0.02,-0.0198,-0.0229,-0.0231,-0.0233,-0.0237,-0.0228,0,0,0,0,0,-0.0352,-0.037,-0.0365,-0.0381,-0.0379,-0.0367,-0.0364,-0.0362,-0.0349,-0.0344,-0.0316,-0.0287,-0.0266,-0.0244,-0.0226,-0.0195,-0.0151,-0.0183,-0.0185,-0.0187,-0.0184,-0.0138,-0.0135,-0.0163,-0.0163,-0.0163,0,0,-0.0359,-0.0367,-0.0377,-0.0384,-0.0378,-0.0382,-0.0366,-0.0373,-0.0372,-0.0337,-0.0323,-0.0301,-0.0264,-0.0241,-0.0228,-0.0213,-0.0147,-0.0186,-0.0188,-0.0184,-0.0137,-0.0134,-0.0132,-0.0163,-0.0163,-0.0163,0,0,-0.0387,-0.0391,-0.0414,-0.0411,-0.0411,-0.0401,-0.0405,-0.0395,-0.0386,-0.0371,-0.0349,-0.0324,-0.0281,-0.0253,-0.0233,-0.023,-0.0172,-0.0218,-0.0214,-0.017,-0.0167,-0.0164,-0.007,-0.0058,-0.0204,-0.0204,-0.0204,0,-0.0395,-0.0425,-0.0417,-0.0432,-0.0437,-0.0412,-0.0431,-0.0412,-0.0394,-0.0382,-0.0373,-0.0304,-0.0288,-0.0242,-0.0248,-0.0235,-0.018,-0.0212,-0.0172,-0.0169,-0.0165,-0.0069,-0.0056,-0.0205,-0.0205,-0.0205,-0.0205,0,-0.0435,-0.0455,-0.0466,-0.0478,-0.0477,-0.0492,-0.0469,-0.0453,-0.0434,-0.0415,-0.0373,-0.0332,-0.0282,-0.0275,-0.0264,-0.0222,-0.018,-0.0194,-0.0169,-0.0165,-0.0063,-0.0049,-0.0208,-0.0207,-0.0207,-0.0206,0,0,-0.0466,-0.0492,-0.0498,-0.0511,-0.0509,-0.0514,-0.0499,-0.0482,-0.0457,-0.0421,-0.0377,-0.0348,-0.0308,-0.0282,-0.0245,-0.0207,-0.0141,-0.019,-0.0187,-0.0098,0.0006,-0.0025,-0.0011,-0.0147,-0.0146,-0.0145,0.008,0,-0.05,-0.0553,-0.0551,-0.0581,-0.06,-0.0568,-0.0552,-0.0527,-0.0484,-0.0426,-0.0367,-0.0323,-0.031,-0.0277,-0.0235,-0.0169,-0.0111,-0.0198,-0.0009,-0.0002,-0.0034,0.0,-0.0141,0.009,0.0094,0.0096,0.0098,0,-0.0537,-0.0571,-0.0625,-0.0633,-0.0636,-0.0647,-0.0609,-0.0588,-0.0502,-0.0459,-0.0382,-0.0322,-0.0236,-0.0243,-0.0088,-0.0139,-0.0072,-0.0021,-0.0011,-0.0021,-0.0009,0.0078,0.0124,0.0122,0.012,0.0119,0.0117,0,-0.0569,-0.0613,-0.0665,-0.0673,-0.0677,-0.0687,-0.0678,-0.0615,-0.058,-0.0475,-0.042,-0.0302,-0.0231,-0.0132,-0.0024,-0.0046,0.0143,0.0131,0.0183,0.0186,0.0162,0.0157,0.0225,0.0225,0.0224,0.0223,0.0223,0,-0.0594,-0.0624,-0.0693,-0.0716,-0.0759,-0.074,-0.0731,-0.0693,-0.0607,-0.0554,-0.0442,-0.0357,-0.0211,-0.0084,0.0009,0.0154,0.0182,0.0201,0.0232,0.0148,0.0138,0.0176,0.0167,0.0232,0.023,0.0228,0.0227,0,-0.0599,-0.0635,-0.0705,-0.0762,-0.0779,-0.0812,-0.0791,-0.0754,-0.0675,-0.0589,-0.0555,-0.0384,-0.0212,-0.0052,0.0127,0.0192,0.0325,0.0357,0.0303,0.0326,0.0348,0.0335,0.0482,0.0482,0.0483,0.0483,0.0483,0,-0.0609,-0.0655,-0.077,-0.0804,-0.0836,-0.0865,-0.0859,-0.0805,-0.0757,-0.0605,-0.0561,-0.038,-0.0255,0.0029,0.0158,0.0386,0.0371,0.0466,0.0363,0.0355,0.0371,0.0357,0.0344,0.0484,0.0484,0.0484,0.0485,0,-0.0641,-0.0698,-0.0735,-0.0842,-0.088,-0.0898,-0.0897,-0.0868,-0.0768,-0.0701,-0.0535,-0.0372,-0.0172,0.0029,0.0198,0.0338,0.0422,0.0471,0.047,0.0374,0.036,0.0372,0.0359,0.0486,0.0486,0.0486,0.0486,0,-0.0654,-0.0695,-0.0774,-0.0846,-0.089,-0.0915,-0.0915,-0.0842,-0.0786,-0.0629,-0.0582,-0.0354,-0.0222,0.0005,0.0157,0.0301,0.0321,0.0342,0.0349,0.0349,0.0205,0.016,0.0268,0,0,0,0,0,-0.0683,-0.0704,-0.0772,-0.0836,-0.0882,-0.0927,-0.0913,-0.0888,-0.0811,-0.07,-0.0634,-0.0447,-0.018,-0.0057,0.0085,0.0138,0.0324,0.0304,0.0345,0.0496,0.0494,0.0339,0,0,0,0,0,0,-0.0668,-0.0726,-0.0761,-0.0821,-0.0861,-0.0905,-0.0904,-0.0865,-0.0789,-0.0697,-0.055,-0.0445,-0.0187,-0.0265,0.0077,0.0124,0.0161,0.0438,0.044,0.0497,0.0495,0.0493,0.0333,0,0,0,0,0]}]]